• In Uzbekistan
  • List of Countries
  • For 7 days
  • Water Temperature
  • Satellite Maps
  • Weather Map
  • Weather Widgets
  • user-avatar
    Login

    Hourly Weather Marcali

    Today, 18 July, Wednesday

    Time Temperature Precipitation Wind Pressure Humidity
    00:00 +19°C° 0.1 mm 2 mps 747 mmHg 72%
    01:00 +18°C° 0.1 mm 2 mps 747 mmHg 75%
    02:00 +18°C° 0 mm 2 mps 747 mmHg 76%
    03:00 +18°C° 0 mm 3 mps 747 mmHg 77%
    04:00 +18°C° 0 mm 3 mps 747 mmHg 78%
    05:00 +19°C° 0 mm 3 mps 747 mmHg 73%
    06:00 +20°C° 0 mm 4 mps 747 mmHg 68%
    07:00 +22°C° 0 mm 4 mps 747 mmHg 63%
    08:00 +25°C° 0 mm 5 mps 747 mmHg 55%
    09:00 +27°C° 0 mm 7 mps 747 mmHg 48%
    10:00 +29°C° 0 mm 8 mps 747 mmHg 40%
    11:00 +29°C° 0 mm 7 mps 747 mmHg 40%
    12:00 +29°C° 0 mm 7 mps 747 mmHg 40%
    13:00 +29°C° 0 mm 7 mps 747 mmHg 39%
    14:00 +28°C° 0 mm 7 mps 747 mmHg 44%
    15:00 +27°C° 0 mm 7 mps 747 mmHg 48%
    16:00 +26°C° 0 mm 6 mps 747 mmHg 53%
    17:00 +24°C° 0.1 mm 6 mps 747 mmHg 57%
    18:00 +23°C° 0.1 mm 5 mps 747 mmHg 62%
    19:00 +22°C° 0.1 mm 4 mps 747 mmHg 67%
    20:00 +22°C° 0.1 mm 4 mps 747 mmHg 69%
    21:00 +21°C° 0.1 mm 4 mps 748 mmHg 71%
    22:00 +21°C° 0.1 mm 4 mps 748 mmHg 73%
    23:00 +20°C° 0.1 mm 4 mps 748 mmHg 73%

    Tomorrow, 19 July, Thursday

    Time Temperature Precipitation Wind Pressure Humidity
    00:00 +20°C° 0.1 mm 5 mps 748 mmHg 73%
    01:00 +20°C° 0.1 mm 5 mps 748 mmHg 74%
    02:00 +20°C° 0.1 mm 5 mps 748 mmHg 75%
    03:00 +20°C° 0.1 mm 5 mps 748 mmHg 75%
    04:00 +19°C° 0.1 mm 5 mps 748 mmHg 76%
    05:00 +20°C° 0.2 mm 5 mps 748 mmHg 75%
    06:00 +20°C° 0.2 mm 6 mps 748 mmHg 74%
    07:00 +21°C° 0.2 mm 6 mps 748 mmHg 73%
    08:00 +23°C° 0.1 mm 7 mps 749 mmHg 66%
    09:00 +24°C° 0.1 mm 7 mps 749 mmHg 59%
    10:00 +27°C° 0.1 mm 8 mps 749 mmHg 53%
    11:00 +28°C° 0 mm 8 mps 749 mmHg 50%
    12:00 +29°C° 0 mm 7 mps 748 mmHg 47%
    13:00 +29°C° 0 mm 7 mps 748 mmHg 44%
    14:00 +30°C° 0 mm 7 mps 748 mmHg 43%
    15:00 +30°C° 0 mm 7 mps 748 mmHg 42%
    16:00 +30°C° 0 mm 7 mps 748 mmHg 42%
    17:00 +29°C° 0 mm 6 mps 748 mmHg 46%
    18:00 +27°C° 0 mm 5 mps 748 mmHg 50%
    19:00 +26°C° 0 mm 4 mps 749 mmHg 55%
    20:00 +23°C° 0 mm 4 mps 749 mmHg 60%
    21:00 +22°C° 0 mm 3 mps 749 mmHg 66%
    22:00 +20°C° 0 mm 3 mps 750 mmHg 72%
    23:00 +19°C° 0 mm 3 mps 750 mmHg 76%

    Day after tomorrow, 20 July, Friday

    Time Temperature Precipitation Wind Pressure Humidity
    00:00 +19°C° 0 mm 2 mps 750 mmHg 80%
    01:00 +18°C° 0 mm 2 mps 750 mmHg 84%
    02:00 +18°C° 0 mm 2 mps 750 mmHg 86%
    03:00 +17°C° 0 mm 3 mps 750 mmHg 87%
    04:00 +17°C° 0 mm 3 mps 750 mmHg 88%
    05:00 +19°C° 0 mm 3 mps 750 mmHg 81%
    06:00 +20°C° 0 mm 4 mps 750 mmHg 73%
    07:00 +22°C° 0 mm 4 mps 750 mmHg 66%
    08:00 +25°C° 0 mm 4 mps 750 mmHg 58%
    09:00 +27°C° 0 mm 5 mps 750 mmHg 51%
    10:00 +29°C° 0 mm 5 mps 750 mmHg 43%
    11:00 +30°C° 0 mm 4 mps 749 mmHg 40%
    12:00 +32°C° 0 mm 4 mps 749 mmHg 36%
    13:00 +33°C° 0 mm 4 mps 748 mmHg 33%
    14:00 +33°C° 0 mm 4 mps 748 mmHg 33%
    15:00 +33°C° 0 mm 4 mps 748 mmHg 33%
    16:00 +33°C° 0 mm 3 mps 748 mmHg 32%
    17:00 +30°C° 0 mm 3 mps 747 mmHg 39%
    18:00 +29°C° 0 mm 2 mps 747 mmHg 47%
    19:00 +27°C° 0 mm 2 mps 747 mmHg 54%
    20:00 +25°C° 0 mm 1 mps 747 mmHg 61%
    21:00 +24°C° 0 mm 1 mps 748 mmHg 68%
    22:00 +22°C° 0 mm 1 mps 748 mmHg 75%
    23:00 +22°C° 0 mm 1 mps 748 mmHg 77%

    21 July, Saturday

    Time Temperature Precipitation Wind Pressure Humidity
    00:00 +21°C° 0 mm 1 mps 748 mmHg 80%
    01:00 +21°C° 0 mm 1 mps 747 mmHg 83%
    02:00 +20°C° 0 mm 1 mps 747 mmHg 84%
    03:00 +20°C° 0 mm 1 mps 747 mmHg 85%
    04:00 +18°C° 0 mm 0 mps 747 mmHg 86%
    05:00 +21°C° 0.1 mm 1 mps 747 mmHg 80%
    06:00 +23°C° 0.1 mm 1 mps 747 mmHg 75%
    07:00 +25°C° 0.1 mm 1 mps 747 mmHg 70%
    08:00 +26°C° 0.1 mm 2 mps 747 mmHg 63%
    09:00 +28°C° 0.1 mm 2 mps 747 mmHg 57%
    10:00 +29°C° 0.1 mm 2 mps 747 mmHg 50%
    11:00 +31°C° 0 mm 2 mps 746 mmHg 46%
    12:00 +33°C° 0 mm 3 mps 746 mmHg 41%
    13:00 +34°C° 0 mm 3 mps 745 mmHg 37%
    14:00 +34°C° 0 mm 3 mps 745 mmHg 37%
    15:00 +34°C° 0 mm 3 mps 745 mmHg 38%
    16:00 +34°C° 0 mm 3 mps 745 mmHg 38%
    17:00 +33°C° 0.4 mm 3 mps 745 mmHg 45%
    18:00 +30°C° 0.4 mm 2 mps 745 mmHg 51%
    19:00 +28°C° 0.4 mm 2 mps 744 mmHg 58%
    20:00 +26°C° 1.2 mm 2 mps 745 mmHg 66%
    21:00 +24°C° 1.2 mm 2 mps 745 mmHg 75%
    22:00 +21°C° 1.2 mm 3 mps 745 mmHg 84%
    23:00 +21°C° 0.2 mm 2 mps 745 mmHg 86%

    22 July, Sunday

    Time Temperature Precipitation Wind Pressure Humidity
    00:00 +20°C° 0.2 mm 2 mps 745 mmHg 89%
    01:00 +20°C° 0.2 mm 2 mps 745 mmHg 92%
    02:00 +19°C° 0.1 mm 2 mps 745 mmHg 92%
    03:00 +19°C° 0.1 mm 2 mps 745 mmHg 92%
    04:00 +19°C° 0.1 mm 2 mps 745 mmHg 92%
    05:00 +20°C° 0.1 mm 3 mps 745 mmHg 89%
    06:00 +20°C° 0.1 mm 3 mps 745 mmHg 86%
    07:00 +21°C° 0.1 mm 3 mps 745 mmHg 82%
    08:00 +24°C° 0.3 mm 3 mps 745 mmHg 76%
    09:00 +25°C° 0.3 mm 3 mps 745 mmHg 69%
    10:00 +26°C° 0.3 mm 3 mps 745 mmHg 62%
    11:00 +27°C° 0.6 mm 3 mps 744 mmHg 62%
    12:00 +27°C° 0.6 mm 4 mps 744 mmHg 62%
    13:00 +28°C° 0.6 mm 4 mps 744 mmHg 61%
    14:00 +27°C° 0.5 mm 4 mps 744 mmHg 63%
    15:00 +27°C° 0.5 mm 4 mps 744 mmHg 64%
    16:00 +26°C° 0.5 mm 4 mps 744 mmHg 66%
    17:00 +25°C° 0.2 mm 4 mps 744 mmHg 70%
    18:00 +23°C° 0.2 mm 4 mps 744 mmHg 73%
    19:00 +22°C° 0.2 mm 4 mps 744 mmHg 77%
    20:00 +22°C° 0 mm 5 mps 744 mmHg 78%
    21:00 +21°C° 0 mm 5 mps 744 mmHg 80%
    22:00 +20°C° 0 mm 5 mps 744 mmHg 82%
    23:00 +20°C° 0.3 mm 5 mps 744 mmHg 84%

    23 July, Monday

    Time Temperature Precipitation Wind Pressure Humidity
    00:00 +19°C° 0.3 mm 5 mps 745 mmHg 86%
    01:00 +19°C° 0.3 mm 5 mps 745 mmHg 88%
    02:00 +19°C° 0.4 mm 5 mps 745 mmHg 88%
    03:00 +19°C° 0.4 mm 5 mps 745 mmHg 89%
    04:00 +19°C° 0.4 mm 6 mps 745 mmHg 90%
    05:00 +19°C° 0.3 mm 6 mps 746 mmHg 88%
    06:00 +20°C° 0.3 mm 7 mps 746 mmHg 86%
    07:00 +20°C° 0.3 mm 7 mps 746 mmHg 85%
    08:00 +22°C° 0.1 mm 7 mps 747 mmHg 76%
    09:00 +23°C° 0.1 mm 7 mps 747 mmHg 68%
    10:00 +26°C° 0.1 mm 7 mps 747 mmHg 59%
    11:00 +27°C° 0.1 mm 7 mps 747 mmHg 56%
    12:00 +28°C° 0.1 mm 7 mps 747 mmHg 53%
    13:00 +29°C° 0.1 mm 7 mps 746 mmHg 50%
    14:00 +29°C° 0.1 mm 7 mps 746 mmHg 49%
    15:00 +29°C° 0.1 mm 7 mps 746 mmHg 49%
    16:00 +29°C° 0.1 mm 7 mps 746 mmHg 48%
    17:00 +28°C° 0 mm 6 mps 746 mmHg 52%
    18:00 +27°C° 0 mm 5 mps 747 mmHg 55%
    19:00 +26°C° 0 mm 4 mps 747 mmHg 58%
    20:00 +25°C° 0 mm 5 mps 747 mmHg 60%
    21:00 +23°C° 0 mm 5 mps 747 mmHg 61%
    22:00 +22°C° 0 mm 5 mps 748 mmHg 63%
    23:00 +22°C° 0 mm 4 mps 748 mmHg 66%
    Show more